#timestamp,LO_Frequency,Hit,StdDev 
1458187215.1,286047001.6,P
1458187216.0,286047001.6,N
1458187235.8,286047002.6,N
1458187255.6,286047002.7,N
1458187275.5,286046998.3,N
1458187295.3,286046999.3,N
1458187315.1,286047001.0,N
1458187335.9,286047000.5,N
1458187355.7,286047000.7,N
1458187375.5,286047002.2,N
1458187395.4,286047000.5,N
1458187415.2,286047000.0,N
1458187435.0,286046998.7,N
1458187435.9,286046998.7,N
1458187455.8,286046995.0,Y
1458187475.6,286046995.2,P
1458187495.4,286046997.7,N
1458187515.3,286046994.5,N
1458187535.1,286046996.1,N
1458187536.0,286046996.1,N
1458187555.8,286046994.6,N
1458187575.6,286046996.3,N
1458187595.5,286046993.7,Y
1458187615.3,286047000.8,P
1458187635.1,286046996.9,N
1458187655.9,286046999.6,N
1458187675.7,286046993.5,Y
1458187695.6,286046997.5,P
1458187715.4,286046998.2,P
1458187735.2,286046999.0,N
1458187755.1,286046996.7,Y
1458187756.0,286046996.7,P
1458187775.8,286046997.2,P
1458187795.6,286046995.6,P
1458187815.5,286046994.9,Y
1458187835.3,286047000.4,P
1458187855.1,286047002.4,N
1458187875.9,286047004.1,N
1458187895.7,286047002.9,N
1458187915.5,286047005.8,N
1458187935.3,286047007.6,N
1458187955.2,286047006.2,N
1458187975.0,286047007.3,N
1458187975.9,286047007.3,N
1458187995.7,286047004.9,N
1458188015.6,286047008.1,N
1458188035.4,286047008.1,N
1458188055.2,286047010.0,Y
1458188075.1,286047009.0,P
1458188076.0,286047009.0,P
1458188095.8,286047010.7,P
1458188115.6,286047010.8,Y
1458188135.5,286047000.2,P
1458188155.3,286047001.8,N
1458188175.1,286046998.2,N
1458188195.9,286047001.5,N
1458188215.7,286047002.6,N
1458188235.5,286047003.4,N
1458188255.4,286047003.1,N
1458188275.2,286047001.9,N
1458188295.0,286047006.0,N
1458188295.9,286047006.0,N
1458188315.8,286047003.8,N
1458188335.6,286047004.0,N
1458188355.4,286047001.5,N
1458188375.2,286047007.5,N
1458188395.1,286047006.5,N
1458188396.0,286047006.5,N
1458188415.8,286047004.5,N
1458188435.6,286047007.2,N
1458188455.5,286047003.8,N
1458188475.3,286047001.6,N
1458188495.1,286047001.3,N
1458188515.9,286047001.8,N
1458188535.7,286047000.0,N
1458188555.5,286047000.9,N
1458188575.4,286047000.4,N
1458188595.2,286047003.6,N
1458188615.0,286047003.1,N
1458188615.9,286047003.1,N
1458188635.8,286047002.1,N
1458188655.6,286047000.2,N
1458188675.4,286047002.5,N
1458188695.3,286047000.8,N
1458188715.1,286046998.2,N
1458188716.0,286046998.2,N
1458188735.8,286046996.8,N
1458188755.7,286046996.5,N
1458188775.5,286047000.1,N
1458188795.3,286047002.3,N
1458188815.1,286046998.7,N
1458188835.9,286047001.1,N
1458188855.7,286046998.9,N
1458188875.5,286046998.9,N
1458188895.4,286046999.3,N
1458188915.2,286046999.2,N
1458188935.0,286046999.4,N
1458188935.9,286046999.4,N
1458188955.8,286046999.6,N
1458188975.6,286046994.9,N
1458188995.4,286047000.6,N
1458189015.3,286046999.9,N
1458189035.1,286047000.7,N
1458189036.0,286047000.7,N
1458189055.8,286047001.7,N
1458189075.7,286046999.7,N
1458189095.5,286047002.3,N
1458189115.3,286047000.5,N
1458189135.2,286046996.7,N
1458189155.9,286046997.3,N
1458189175.7,286046997.3,N
1458189195.6,286047000.2,N
1458189215.4,286046995.0,N
1458189235.2,286046997.7,N
1458189255.1,286046993.3,Y
1458189256.0,286046993.3,P
1458189275.8,286046996.3,N
1458189295.6,286046998.0,N
1458189315.5,286046999.2,N
1458189335.3,286047000.4,N
1458189355.1,286046999.9,N
1458189375.8,286046998.7,N
1458189395.7,286046997.1,N
1458189415.5,286046998.0,N
1458189435.3,286046999.3,N
1458189455.2,286046997.1,N
1458189475.9,286047000.0,N
1458189495.7,286047002.4,N
1458189515.6,286047001.4,N
1458189535.4,286046999.9,N
1458189555.2,286047003.3,N
1458189575.1,286047004.0,N
1458189576.0,286047004.0,N
1458189595.8,286046999.0,N
1458189615.6,286046995.4,N
1458189635.5,286046996.2,N
1458189655.3,286046998.7,N
1458189675.1,286046998.8,N
1458189695.8,286046996.6,N
1458189715.7,286046995.3,N
1458189735.5,286046995.0,N
1458189755.3,286046998.3,N
1458189775.2,286046997.0,N
1458189795.9,286046996.9,N
1458189815.7,286047000.7,N
1458189835.6,286047004.1,N
1458189855.4,286047005.3,N
1458189875.2,286047006.0,N
1458189895.1,286047003.8,N
1458189896.0,286047003.8,N
1458189915.8,286047001.9,N
1458189935.6,286047001.0,N
1458189955.4,286046998.9,N
1458189975.3,286046996.5,N
1458189995.1,286046999.4,N
1458190015.8,286046998.7,N
1458190035.7,286046995.4,N
1458190055.5,286046999.1,N
1458190075.3,286046997.7,N
1458190095.2,286046998.5,N
1458190115.9,286047003.6,N
1458190135.7,286047005.5,N
1458190155.6,286047005.4,N
1458190175.4,286047004.6,N
1458190195.2,286047005.9,N
1458190215.1,286047003.4,N
1458190216.0,286047003.4,N
1458190235.8,286047004.1,N
1458190255.6,286047003.4,N
1458190275.5,286047005.7,N
1458190295.3,286047003.2,N
1458190315.1,286047005.1,N
1458190335.8,286047005.0,N
1458190355.7,286047004.2,N
1458190375.5,286047003.2,N
1458190395.3,286047005.0,N
1458190415.2,286047007.5,N
1458190435.0,286047006.0,N
1458190435.9,286047006.0,N
1458190455.7,286047005.6,N
1458190475.6,286047001.7,N
1458190495.4,286047004.4,N
1458190515.2,286047004.0,N
1458190535.1,286047000.0,N
1458190536.0,286047000.0,N
1458190555.8,286046998.7,N
1458190575.6,286046998.3,N
1458190595.5,286046995.4,N
1458190615.3,286046998.2,N
1458190635.1,286046995.3,N
1458190655.9,286046993.1,N
1458190675.7,286046990.6,N
1458190695.5,286046990.8,N
1458190715.3,286046989.8,N
1458190735.2,286046987.8,N
1458190755.0,286046988.1,N
1458190755.9,286046988.1,N
1458190775.7,286046988.1,N
1458190795.6,286046988.2,N
